PCG NZAA-YSSY

Flight info

Callsign PCG
Flight time 1h 57m
Altitude 40000
Route OSRAP2P VELMO DCT 38S163E DCT PLUGA DCT RIKNI N774 MARLN MARLN5
Aircraft B736/M-SDE2E3FGHIRWXY/LB1

Departure

Time 2026-04-26 05:46
Airport Auckland International Airport (NZAA)

Arrival

Time 2026-04-26 07:43
Airport Sydney Kingsford Smith International Airport (YSSY)
Time Latitude Longitude Altitude Speed Heading
2026-04-26 05:09 -37.00979 174.77753 19 ft 0 kts 342°
2026-04-26 05:29 -37.00994 174.77758 20 ft 3 kts 342°
2026-04-26 05:29 -37.01012 174.77765 18 ft 3 kts 342°
2026-04-26 05:29 -37.01029 174.77772 20 ft 3 kts 342°
2026-04-26 05:30 -37.01047 174.77774 20 ft 3 kts 47°
2026-04-26 05:30 -37.01052 174.77764 21 ft 0 kts 68°
2026-04-26 05:37 -37.01052 174.77768 20 ft 2 kts 88°
2026-04-26 05:38 -37.01082 174.77765 20 ft 11 kts 219°
2026-04-26 05:38 -37.01140 174.77736 18 ft 15 kts 181°
2026-04-26 05:38 -37.01230 174.77829 21 ft 14 kts 76°
2026-04-26 05:38 -37.01200 174.77946 22 ft 14 kts 72°
2026-04-26 05:39 -37.01158 174.78098 22 ft 23 kts 70°
2026-04-26 05:39 -37.01098 174.78304 24 ft 26 kts 70°
2026-04-26 05:39 -37.01057 174.78453 26 ft 28 kts 71°
2026-04-26 05:39 -37.00991 174.78692 28 ft 29 kts 70°
2026-04-26 05:40 -37.00926 174.78926 20 ft 30 kts 71°
2026-04-26 05:40 -37.00872 174.79128 20 ft 23 kts 71°
2026-04-26 05:40 -37.00820 174.79313 22 ft 22 kts 70°
2026-04-26 05:40 -37.00768 174.79494 23 ft 22 kts 71°
2026-04-26 05:41 -37.00721 174.79672 23 ft 21 kts 72°
2026-04-26 05:41 -37.00675 174.79841 27 ft 20 kts 71°
2026-04-26 05:41 -37.00645 174.79976 28 ft 13 kts 96°
2026-04-26 05:41 -37.00694 174.80071 28 ft 14 kts 130°
2026-04-26 05:42 -37.00701 174.80081 29 ft 0 kts 130°
2026-04-26 05:44 -37.00706 174.80089 29 ft 5 kts 131°
2026-04-26 05:44 -37.00755 174.80125 29 ft 11 kts 175°
2026-04-26 05:44 -37.00799 174.80091 30 ft 0 kts 245°
2026-04-26 05:45 -37.00800 174.80089 30 ft 4 kts 247°
2026-04-26 05:45 -37.00874 174.79831 27 ft 66 kts 251°
2026-04-26 05:46 -37.01091 174.79040 22 ft 124 kts 250°
2026-04-26 05:46 -37.01429 174.77916 257 ft 144 kts 250°
2026-04-26 05:46 -37.01777 174.76730 826 ft 148 kts 250°
2026-04-26 05:46 -37.02110 174.75463 1272 ft 158 kts 250°
2026-04-26 05:47 -37.02437 174.74215 2091 ft 149 kts 249°
2026-04-26 05:47 -37.02784 174.72912 2541 ft 174 kts 250°
2026-04-26 05:47 -37.03205 174.71338 2846 ft 203 kts 250°
2026-04-26 05:47 -37.03703 174.69582 3216 ft 222 kts 249°
2026-04-26 05:48 -37.04225 174.67781 3873 ft 222 kts 248°
2026-04-26 05:48 -37.04748 174.65950 4552 ft 224 kts 247°
2026-04-26 05:48 -37.05259 174.64089 5261 ft 223 kts 249°
2026-04-26 05:48 -37.05737 174.62234 5815 ft 229 kts 249°
2026-04-26 05:49 -37.06223 174.60406 6642 ft 216 kts 249°
2026-04-26 05:49 -37.07249 174.56762 7644 ft 225 kts 248°
2026-04-26 05:49 -37.07770 174.54930 8209 ft 225 kts 248°
2026-04-26 05:50 -37.08273 174.53069 8777 ft 226 kts 249°
2026-04-26 05:50 -37.08759 174.51200 9356 ft 225 kts 249°
2026-04-26 05:50 -37.09259 174.49324 9896 ft 225 kts 248°
2026-04-26 05:50 -37.09773 174.47466 10392 ft 226 kts 248°
2026-04-26 05:51 -37.10286 174.45638 10871 ft 225 kts 247°
2026-04-26 05:51 -37.10798 174.43784 11347 ft 224 kts 248°
2026-04-26 05:51 -37.11401 174.41993 11804 ft 222 kts 239°
2026-04-26 05:51 -37.12216 174.40355 12261 ft 220 kts 232°
2026-04-26 05:52 -37.13127 174.38811 12706 ft 219 kts 231°
2026-04-26 05:52 -37.13988 174.37263 13136 ft 220 kts 235°
2026-04-26 05:52 -37.14721 174.35573 13573 ft 221 kts 243°
2026-04-26 05:52 -37.15266 174.33758 13991 ft 222 kts 250°
2026-04-26 05:53 -37.15667 174.31882 14342 ft 223 kts 253°
2026-04-26 05:53 -37.16040 174.29994 14692 ft 223 kts 251°
2026-04-26 05:53 -37.16493 174.28166 15025 ft 222 kts 246°
2026-04-26 05:53 -37.17097 174.26396 15433 ft 219 kts 240°
2026-04-26 05:54 -37.17826 174.24717 15968 ft 218 kts 236°
2026-04-26 05:54 -37.18607 174.23081 16521 ft 218 kts 236°
2026-04-26 05:54 -37.19352 174.21424 17065 ft 218 kts 238°
2026-04-26 05:54 -37.19998 174.19718 17576 ft 219 kts 243°
2026-04-26 05:55 -37.20547 174.17921 18091 ft 221 kts 246°
2026-04-26 05:55 -37.21061 174.16007 18302 ft 246 kts 247°
2026-04-26 05:55 -37.21652 174.13855 18541 ft 273 kts 246°
2026-04-26 05:55 -37.22332 174.11531 18739 ft 301 kts 246°
2026-04-26 05:56 -37.23126 174.08967 18924 ft 328 kts 245°
2026-04-26 05:56 -37.24021 174.06201 19124 ft 353 kts 245°
2026-04-26 05:56 -37.24988 174.03294 19649 ft 365 kts 244°
2026-04-26 05:56 -37.25988 174.00343 20441 ft 369 kts 244°
2026-04-26 05:57 -37.27006 173.97371 21292 ft 371 kts 244°
2026-04-26 05:57 -37.28028 173.94403 22088 ft 375 kts 244°
2026-04-26 05:57 -37.29078 173.91367 22857 ft 380 kts 244°
2026-04-26 05:57 -37.30127 173.88329 23651 ft 384 kts 245°
2026-04-26 05:58 -37.31195 173.85228 24329 ft 388 kts 245°
2026-04-26 05:58 -37.32280 173.82091 25005 ft 391 kts 245°
2026-04-26 05:58 -37.33365 173.78949 25720 ft 393 kts 245°
2026-04-26 05:58 -37.34456 173.75784 26362 ft 397 kts 245°
2026-04-26 05:59 -37.35559 173.72578 26980 ft 401 kts 245°
2026-04-26 05:59 -37.36672 173.69342 27621 ft 404 kts 245°
2026-04-26 05:59 -37.37776 173.66125 28239 ft 407 kts 245°
2026-04-26 05:59 -37.38903 173.62841 28833 ft 411 kts 245°
2026-04-26 06:00 -37.40046 173.59506 29411 ft 415 kts 245°
2026-04-26 06:00 -37.41191 173.56158 30012 ft 418 kts 246°
2026-04-26 06:00 -37.42331 173.52824 30479 ft 422 kts 246°
2026-04-26 06:00 -37.43491 173.49425 30934 ft 425 kts 246°
2026-04-26 06:01 -37.44665 173.45983 31418 ft 427 kts 246°
2026-04-26 06:01 -37.45839 173.42535 31866 ft 430 kts 246°
2026-04-26 06:01 -37.47023 173.39056 32358 ft 430 kts 246°
2026-04-26 06:01 -37.48179 173.35652 33031 ft 426 kts 246°
2026-04-26 06:02 -37.49338 173.32237 33657 ft 423 kts 246°
2026-04-26 06:02 -37.50494 173.28825 34163 ft 423 kts 246°
2026-04-26 06:02 -37.51652 173.25405 34603 ft 422 kts 246°
2026-04-26 06:02 -37.52788 173.22046 35129 ft 418 kts 246°
2026-04-26 06:03 -37.53922 173.18691 35746 ft 413 kts 246°
2026-04-26 06:03 -37.55048 173.15354 36143 ft 413 kts 247°
2026-04-26 06:03 -37.56176 173.12007 36432 ft 415 kts 247°
2026-04-26 06:03 -37.57293 173.08690 36794 ft 414 kts 247°
2026-04-26 06:04 -37.58417 173.05348 37310 ft 411 kts 247°
2026-04-26 06:04 -37.59531 173.02033 37696 ft 410 kts 247°
2026-04-26 06:04 -37.60647 172.98710 38022 ft 410 kts 248°
2026-04-26 06:04 -37.61743 172.95438 38393 ft 409 kts 248°
2026-04-26 06:05 -37.62854 172.92120 38817 ft 407 kts 248°
2026-04-26 06:05 -37.63959 172.88818 39137 ft 406 kts 248°
2026-04-26 06:05 -37.65054 172.85539 39392 ft 406 kts 248°
2026-04-26 06:05 -37.66140 172.82284 39618 ft 406 kts 248°
2026-04-26 06:06 -37.67240 172.78985 39864 ft 406 kts 248°
2026-04-26 06:06 -37.68333 172.75702 40140 ft 405 kts 248°
2026-04-26 06:06 -37.69435 172.72388 40165 ft 410 kts 248°
2026-04-26 06:07 -37.71634 172.65762 40179 ft 410 kts 248°
2026-04-26 06:07 -37.73825 172.59150 40175 ft 403 kts 248°
2026-04-26 06:08 -37.75980 172.52631 40195 ft 401 kts 248°
2026-04-26 06:08 -37.78116 172.46150 40188 ft 401 kts 248°
2026-04-26 06:09 -37.80255 172.39649 40183 ft 401 kts 248°
2026-04-26 06:09 -37.82401 172.33112 40193 ft 401 kts 248°
2026-04-26 06:10 -37.84531 172.26607 40194 ft 403 kts 248°
2026-04-26 06:10 -37.86682 172.20026 40202 ft 404 kts 248°
2026-04-26 06:11 -37.88820 172.13469 40199 ft 406 kts 249°
2026-04-26 06:11 -37.90975 172.06841 40198 ft 407 kts 249°
2026-04-26 06:12 -37.93135 172.00188 40206 ft 408 kts 248°
2026-04-26 06:12 -37.95290 171.93532 40201 ft 408 kts 248°
2026-04-26 06:13 -37.97434 171.86894 40205 ft 408 kts 249°
2026-04-26 06:13 -37.99579 171.80229 40211 ft 408 kts 248°
2026-04-26 06:14 -38.01710 171.73606 40206 ft 407 kts 249°
2026-04-26 06:14 -38.03851 171.66941 40149 ft 407 kts 249°
2026-04-26 06:15 -38.05964 171.60338 40199 ft 405 kts 249°
2026-04-26 06:15 -38.08084 171.53694 40210 ft 404 kts 249°
2026-04-26 06:16 -38.10182 171.47108 40213 ft 404 kts 249°
2026-04-26 06:16 -38.12291 171.40470 40215 ft 404 kts 249°
2026-04-26 06:17 -38.14397 171.33830 40215 ft 404 kts 249°
2026-04-26 06:17 -38.16483 171.27232 40207 ft 405 kts 249°
2026-04-26 06:18 -38.18587 171.20565 40219 ft 405 kts 249°
2026-04-26 06:18 -38.20670 171.13948 40221 ft 406 kts 249°
2026-04-26 06:19 -38.22770 171.07261 40222 ft 407 kts 249°
2026-04-26 06:19 -38.24856 171.00604 40224 ft 407 kts 249°
2026-04-26 06:20 -38.26912 170.93877 40215 ft 407 kts 255°
2026-04-26 06:20 -38.27312 170.90357 40233 ft 406 kts 269°
2026-04-26 06:20 -38.27323 170.86759 40225 ft 406 kts 270°
2026-04-26 06:21 -38.27254 170.79541 40223 ft 407 kts 270°
2026-04-26 06:21 -38.27190 170.72313 40234 ft 408 kts 270°
2026-04-26 06:22 -38.27152 170.65115 40230 ft 409 kts 270°
2026-04-26 06:22 -38.27124 170.57858 40241 ft 409 kts 270°
2026-04-26 06:23 -38.27096 170.50658 40232 ft 409 kts 270°
2026-04-26 06:23 -38.27014 170.33630 40248 ft 409 kts 270°
2026-04-26 06:24 -38.26816 170.04599 40235 ft 409 kts 270°
2026-04-26 06:24 -38.26548 169.75814 40239 ft 409 kts 270°
2026-04-26 06:25 -38.26210 169.46951 40265 ft 409 kts 270°
2026-04-26 06:25 -38.25797 169.17931 40270 ft 410 kts 270°
2026-04-26 06:26 -38.25309 168.89187 40261 ft 411 kts 271°
2026-04-26 06:26 -38.24766 168.60276 40264 ft 411 kts 271°
2026-04-26 06:27 -38.24139 168.31125 40275 ft 412 kts 271°
2026-04-26 06:27 -38.23560 168.06891 40285 ft 412 kts 271°
2026-04-26 06:28 -38.22799 167.77755 40307 ft 412 kts 271°
2026-04-26 06:28 -38.21963 167.48554 40290 ft 414 kts 271°
2026-04-26 06:29 -38.21054 167.19278 40284 ft 414 kts 271°
2026-04-26 06:29 -38.20069 166.89949 40285 ft 415 kts 271°
2026-04-26 06:30 -38.19017 166.60812 40303 ft 415 kts 271°
2026-04-26 06:30 -38.17885 166.31430 40303 ft 415 kts 272°
2026-04-26 06:31 -38.16683 166.02147 40304 ft 416 kts 272°
2026-04-26 06:31 -38.15408 165.72890 40312 ft 416 kts 272°
2026-04-26 06:32 -38.14053 165.43461 40313 ft 416 kts 272°
2026-04-26 06:32 -38.12621 165.14046 40310 ft 417 kts 273°
2026-04-26 06:33 -38.11128 164.84729 40307 ft 417 kts 272°
2026-04-26 06:33 -38.09553 164.55393 40317 ft 417 kts 273°
2026-04-26 06:34 -38.07906 164.25962 40317 ft 417 kts 273°
2026-04-26 06:34 -38.06194 163.96758 40318 ft 417 kts 274°
2026-04-26 06:35 -38.04394 163.67304 40321 ft 418 kts 274°
2026-04-26 06:35 -38.02519 163.37879 40337 ft 418 kts 274°
2026-04-26 06:36 -38.00587 163.08653 40335 ft 418 kts 274°
2026-04-26 06:36 -37.98817 162.93808 40341 ft 419 kts 287°
2026-04-26 06:37 -37.96932 162.86711 40334 ft 420 kts 288°
2026-04-26 06:37 -37.89868 162.59037 40329 ft 421 kts 287°
2026-04-26 06:38 -37.82763 162.30671 40364 ft 421 kts 287°
2026-04-26 06:38 -37.75672 162.02568 40344 ft 422 kts 287°
2026-04-26 06:39 -37.68429 161.74286 40339 ft 422 kts 288°
2026-04-26 06:39 -37.61123 161.46179 40265 ft 425 kts 289°
2026-04-26 06:40 -37.53740 161.17869 40335 ft 423 kts 288°
2026-04-26 06:40 -37.46314 160.89820 40343 ft 424 kts 288°
2026-04-26 06:41 -37.38753 160.61572 40337 ft 425 kts 288°
2026-04-26 06:41 -37.31122 160.33367 40344 ft 426 kts 289°
2026-04-26 06:42 -37.23474 160.05400 40332 ft 427 kts 289°
2026-04-26 06:42 -37.15687 159.77230 40329 ft 427 kts 289°
2026-04-26 06:43 -37.07871 159.49245 40334 ft 427 kts 289°
2026-04-26 06:43 -36.99920 159.21080 40337 ft 428 kts 290°
2026-04-26 06:44 -36.91936 158.93090 40348 ft 429 kts 290°
2026-04-26 06:44 -36.83831 158.64964 40329 ft 430 kts 290°
2026-04-26 06:45 -36.75692 158.37009 40325 ft 430 kts 290°
2026-04-26 06:45 -36.67445 158.08968 40312 ft 430 kts 290°
2026-04-26 06:46 -36.59144 157.81028 40324 ft 429 kts 290°
2026-04-26 06:46 -36.50845 157.53370 40273 ft 422 kts 290°
2026-04-26 06:47 -36.42494 157.25812 40339 ft 432 kts 291°
2026-04-26 06:47 -36.33925 156.97769 40341 ft 432 kts 291°
2026-04-26 06:48 -36.25347 156.70044 40323 ft 427 kts 291°
2026-04-26 06:48 -36.16856 156.42825 40305 ft 423 kts 291°
2026-04-26 06:49 -36.08309 156.15685 40328 ft 421 kts 291°
2026-04-26 06:49 -35.99789 155.88876 40321 ft 420 kts 291°
2026-04-26 06:50 -35.91213 155.62138 40302 ft 420 kts 291°
2026-04-26 06:50 -35.82566 155.35420 40303 ft 419 kts 291°
2026-04-26 06:51 -35.73814 155.08619 40313 ft 420 kts 291°
2026-04-26 06:51 -35.62715 154.74971 40308 ft 420 kts 291°
2026-04-26 06:52 -35.60284 154.68469 40297 ft 421 kts 301°
2026-04-26 06:52 -35.56624 154.62835 40304 ft 421 kts 310°
2026-04-26 06:53 -35.52778 154.57444 40297 ft 422 kts 311°
2026-04-26 06:53 -35.48917 154.52008 40302 ft 422 kts 310°
2026-04-26 06:54 -35.45096 154.46580 40161 ft 420 kts 310°
2026-04-26 06:54 -35.43203 154.43884 39891 ft 412 kts 310°
2026-04-26 06:54 -35.41348 154.41243 39648 ft 404 kts 310°
2026-04-26 06:55 -35.39526 154.38648 39406 ft 397 kts 310°
2026-04-26 06:55 -35.37735 154.36100 39158 ft 390 kts 310°
2026-04-26 06:55 -35.35994 154.33626 38911 ft 384 kts 310°
2026-04-26 06:55 -35.34262 154.31165 38625 ft 378 kts 310°
2026-04-26 06:56 -35.32550 154.28733 38334 ft 375 kts 310°
2026-04-26 06:56 -35.30848 154.26319 38058 ft 371 kts 310°
2026-04-26 06:56 -35.29184 154.23960 37783 ft 366 kts 310°
2026-04-26 06:56 -35.27516 154.21596 37506 ft 363 kts 310°
2026-04-26 06:57 -35.25863 154.19257 37248 ft 365 kts 310°
2026-04-26 06:57 -35.24178 154.16872 37042 ft 384 kts 310°
2026-04-26 06:57 -35.22380 154.14329 36651 ft 408 kts 310°
2026-04-26 06:57 -35.20465 154.11623 36253 ft 431 kts 311°
2026-04-26 06:58 -35.18470 154.08807 35877 ft 438 kts 311°
2026-04-26 06:58 -35.16478 154.05997 35629 ft 435 kts 311°
2026-04-26 06:58 -35.14511 154.03226 35366 ft 427 kts 311°
2026-04-26 06:58 -35.12599 154.00534 34904 ft 422 kts 311°
2026-04-26 06:59 -35.10674 153.97825 34312 ft 422 kts 311°
2026-04-26 06:59 -35.08746 153.95115 33688 ft 421 kts 311°
2026-04-26 06:59 -35.06847 153.92447 33161 ft 418 kts 311°
2026-04-26 06:59 -35.04949 153.89783 32633 ft 415 kts 311°
2026-04-26 07:00 -35.03063 153.87138 32170 ft 411 kts 311°
2026-04-26 07:00 -35.01193 153.84517 31680 ft 407 kts 311°
2026-04-26 07:00 -34.99326 153.81903 31163 ft 406 kts 311°
2026-04-26 07:00 -34.97501 153.79347 30768 ft 401 kts 311°
2026-04-26 07:01 -34.95666 153.76782 30336 ft 398 kts 311°
2026-04-26 07:01 -34.93850 153.74244 29806 ft 395 kts 311°
2026-04-26 07:01 -34.92046 153.71724 29256 ft 392 kts 311°
2026-04-26 07:01 -34.90280 153.69261 28743 ft 389 kts 311°
2026-04-26 07:02 -34.88503 153.66783 28244 ft 386 kts 311°
2026-04-26 07:02 -34.86735 153.64319 27775 ft 383 kts 311°
2026-04-26 07:02 -34.85004 153.61909 27279 ft 380 kts 311°
2026-04-26 07:02 -34.83266 153.59491 26798 ft 378 kts 311°
2026-04-26 07:03 -34.81536 153.57085 26347 ft 374 kts 311°
2026-04-26 07:03 -34.79821 153.54701 25888 ft 372 kts 311°
2026-04-26 07:03 -34.78139 153.52366 25449 ft 370 kts 311°
2026-04-26 07:03 -34.76449 153.50020 25024 ft 367 kts 311°
2026-04-26 07:04 -34.74770 153.47689 24607 ft 364 kts 311°
2026-04-26 07:04 -34.73101 153.45369 24169 ft 363 kts 311°
2026-04-26 07:04 -34.71432 153.43058 23734 ft 360 kts 312°
2026-04-26 07:04 -34.69806 153.40810 23275 ft 357 kts 312°
2026-04-26 07:05 -34.68165 153.38543 22771 ft 356 kts 312°
2026-04-26 07:05 -34.66529 153.36284 22324 ft 353 kts 312°
2026-04-26 07:05 -34.64908 153.34046 21900 ft 349 kts 312°
2026-04-26 07:05 -34.63318 153.31853 21415 ft 349 kts 312°
2026-04-26 07:06 -34.61712 153.29637 20963 ft 347 kts 312°
2026-04-26 07:06 -34.60209 153.27369 20550 ft 344 kts 303°
2026-04-26 07:06 -34.58964 153.24893 20129 ft 342 kts 300°
2026-04-26 07:06 -34.57804 153.22411 19699 ft 341 kts 300°
2026-04-26 07:07 -34.56654 153.19894 19280 ft 339 kts 299°
2026-04-26 07:07 -34.55517 153.17398 18883 ft 337 kts 299°
2026-04-26 07:07 -34.54386 153.14922 18483 ft 335 kts 300°
2026-04-26 07:07 -34.53265 153.12493 18049 ft 332 kts 300°
2026-04-26 07:08 -34.52132 153.10054 17573 ft 331 kts 300°
2026-04-26 07:08 -34.51004 153.07632 17134 ft 329 kts 300°
2026-04-26 07:08 -34.49881 153.05220 16729 ft 326 kts 300°
2026-04-26 07:08 -34.48773 153.02838 16381 ft 321 kts 300°
2026-04-26 07:09 -34.47676 153.00481 15983 ft 319 kts 300°
2026-04-26 07:09 -34.46591 152.98152 15599 ft 316 kts 300°
2026-04-26 07:09 -34.45520 152.95853 15204 ft 314 kts 300°
2026-04-26 07:09 -34.44450 152.93559 14829 ft 312 kts 299°
2026-04-26 07:10 -34.41285 152.86777 13680 ft 304 kts 299°
2026-04-26 07:11 -34.39210 152.82338 12840 ft 300 kts 299°
2026-04-26 07:11 -34.38195 152.80168 12444 ft 298 kts 299°
2026-04-26 07:11 -34.37174 152.77986 12302 ft 298 kts 299°
2026-04-26 07:11 -34.36146 152.75792 12275 ft 299 kts 299°
2026-04-26 07:12 -34.35122 152.73607 12268 ft 296 kts 299°
2026-04-26 07:12 -34.34123 152.71478 12277 ft 284 kts 299°
2026-04-26 07:12 -34.33181 152.69470 12272 ft 273 kts 299°
2026-04-26 07:12 -34.32246 152.67477 12260 ft 271 kts 299°
2026-04-26 07:13 -34.31310 152.65486 12263 ft 272 kts 299°
2026-04-26 07:13 -34.30370 152.63484 12260 ft 273 kts 299°
2026-04-26 07:13 -34.29432 152.61491 12260 ft 273 kts 299°
2026-04-26 07:13 -34.28501 152.59513 12260 ft 273 kts 299°
2026-04-26 07:14 -34.27560 152.57515 12262 ft 273 kts 299°
2026-04-26 07:14 -34.26618 152.55515 12263 ft 273 kts 299°
2026-04-26 07:14 -34.25677 152.53519 12264 ft 272 kts 299°
2026-04-26 07:14 -34.24746 152.51544 12265 ft 272 kts 300°
2026-04-26 07:15 -34.24123 152.50222 12265 ft 272 kts 300°
2026-04-26 07:15 -34.23179 152.48223 12267 ft 272 kts 300°
2026-04-26 07:15 -34.21932 152.45583 12266 ft 272 kts 300°
2026-04-26 07:15 -34.20987 152.43584 12267 ft 272 kts 300°
2026-04-26 07:16 -34.20364 152.42267 12266 ft 272 kts 300°
2026-04-26 07:16 -34.19430 152.40294 12266 ft 272 kts 300°
2026-04-26 07:16 -34.18488 152.38302 12266 ft 272 kts 300°
2026-04-26 07:16 -34.17545 152.36313 12267 ft 272 kts 300°
2026-04-26 07:17 -34.16602 152.34322 12267 ft 273 kts 300°
2026-04-26 07:17 -34.15657 152.32329 12266 ft 273 kts 300°
2026-04-26 07:17 -34.14725 152.30364 12266 ft 273 kts 300°
2026-04-26 07:17 -34.13779 152.28373 12266 ft 273 kts 300°
2026-04-26 07:18 -34.12830 152.26374 12267 ft 273 kts 300°
2026-04-26 07:18 -34.11896 152.24407 12267 ft 273 kts 300°
2026-04-26 07:18 -34.10949 152.22417 12266 ft 273 kts 300°
2026-04-26 07:18 -34.10005 152.20433 12266 ft 272 kts 300°
2026-04-26 07:19 -34.09068 152.18464 12107 ft 268 kts 300°
2026-04-26 07:19 -34.08149 152.16532 11778 ft 261 kts 300°
2026-04-26 07:19 -34.07274 152.14695 11529 ft 250 kts 300°
2026-04-26 07:19 -34.06423 152.12910 11277 ft 241 kts 300°
2026-04-26 07:20 -34.05600 152.11184 11025 ft 233 kts 300°
2026-04-26 07:20 -34.04805 152.09520 10776 ft 226 kts 300°
2026-04-26 07:20 -34.04033 152.07904 10522 ft 217 kts 300°
2026-04-26 07:20 -34.03457 152.06264 10267 ft 209 kts 283°
2026-04-26 07:21 -34.03216 152.04569 10016 ft 200 kts 277°
2026-04-26 07:21 -34.03055 152.02932 9741 ft 194 kts 276°
2026-04-26 07:21 -34.02904 152.01339 9490 ft 195 kts 276°
2026-04-26 07:21 -34.02748 151.99710 9249 ft 194 kts 277°
2026-04-26 07:22 -34.02593 151.98101 9009 ft 191 kts 277°
2026-04-26 07:22 -34.02437 151.96515 8748 ft 187 kts 277°
2026-04-26 07:22 -34.02286 151.94986 8493 ft 186 kts 277°
2026-04-26 07:22 -34.02132 151.93437 8252 ft 185 kts 277°
2026-04-26 07:23 -34.01978 151.91897 8002 ft 184 kts 277°
2026-04-26 07:23 -34.01825 151.90362 7749 ft 183 kts 277°
2026-04-26 07:23 -34.01673 151.88851 7520 ft 182 kts 277°
2026-04-26 07:23 -34.01523 151.87370 7280 ft 176 kts 277°
2026-04-26 07:24 -34.01377 151.85922 7026 ft 171 kts 277°
2026-04-26 07:24 -34.01234 151.84504 6777 ft 167 kts 277°
2026-04-26 07:24 -34.01093 151.83126 6528 ft 165 kts 277°
2026-04-26 07:24 -34.00957 151.81776 6275 ft 164 kts 278°
2026-04-26 07:25 -34.00818 151.80414 6083 ft 164 kts 278°
2026-04-26 07:25 -34.00677 151.79045 6055 ft 166 kts 278°
2026-04-26 07:25 -34.00537 151.77670 6022 ft 163 kts 278°
2026-04-26 07:25 -34.00399 151.76328 6017 ft 162 kts 278°
2026-04-26 07:26 -34.00260 151.74973 6025 ft 163 kts 278°
2026-04-26 07:26 -34.00120 151.73610 6025 ft 164 kts 278°
2026-04-26 07:26 -33.99980 151.72243 6027 ft 164 kts 278°
2026-04-26 07:26 -33.99840 151.70883 6028 ft 165 kts 278°
2026-04-26 07:27 -33.99698 151.69508 6022 ft 165 kts 279°
2026-04-26 07:27 -33.99554 151.68127 6015 ft 165 kts 279°
2026-04-26 07:27 -33.99413 151.66752 6017 ft 165 kts 279°
2026-04-26 07:27 -33.99273 151.65381 6017 ft 165 kts 279°
2026-04-26 07:28 -33.99133 151.64028 6025 ft 164 kts 279°
2026-04-26 07:28 -33.98991 151.62659 6021 ft 164 kts 279°
2026-04-26 07:28 -33.98850 151.61300 6020 ft 163 kts 279°
2026-04-26 07:28 -33.98710 151.59948 6018 ft 162 kts 279°
2026-04-26 07:29 -33.98570 151.58601 6014 ft 161 kts 278°
2026-04-26 07:29 -33.98432 151.57273 6014 ft 161 kts 279°
2026-04-26 07:29 -33.98293 151.55936 6016 ft 160 kts 279°
2026-04-26 07:29 -33.98156 151.54615 6021 ft 158 kts 278°
2026-04-26 07:30 -33.98018 151.53299 6019 ft 158 kts 278°
2026-04-26 07:30 -33.97883 151.52000 6018 ft 158 kts 278°
2026-04-26 07:30 -33.97745 151.50681 6017 ft 158 kts 278°
2026-04-26 07:30 -33.97607 151.49356 6018 ft 159 kts 278°
2026-04-26 07:31 -33.97470 151.48042 6016 ft 160 kts 278°
2026-04-26 07:31 -33.97330 151.46703 6014 ft 161 kts 278°
2026-04-26 07:31 -33.97189 151.45362 6011 ft 162 kts 278°
2026-04-26 07:31 -33.97047 151.44012 6009 ft 162 kts 278°
2026-04-26 07:32 -33.96907 151.42677 6008 ft 162 kts 278°
2026-04-26 07:32 -33.96765 151.41325 6006 ft 163 kts 278°
2026-04-26 07:32 -33.96622 151.39972 6003 ft 162 kts 278°
2026-04-26 07:32 -33.96565 151.38619 5984 ft 163 kts 258°
2026-04-26 07:33 -33.97233 151.37589 5999 ft 160 kts 204°
2026-04-26 07:33 -33.98283 151.37161 6025 ft 165 kts 200°
2026-04-26 07:33 -33.99367 151.36698 5962 ft 162 kts 200°
2026-04-26 07:33 -34.00438 151.36240 5610 ft 164 kts 201°
2026-04-26 07:34 -34.01508 151.35785 5291 ft 164 kts 201°
2026-04-26 07:34 -34.02593 151.35324 4981 ft 163 kts 201°
2026-04-26 07:34 -34.03679 151.34862 4572 ft 168 kts 202°
2026-04-26 07:34 -34.04604 151.34077 4181 ft 165 kts 242°
2026-04-26 07:35 -34.05169 151.32885 3904 ft 162 kts 243°
2026-04-26 07:35 -34.05872 151.31852 3595 ft 163 kts 214°
2026-04-26 07:35 -34.06976 151.31630 3296 ft 161 kts 168°
2026-04-26 07:35 -34.08086 151.31909 2955 ft 164 kts 167°
2026-04-26 07:36 -34.09210 151.32162 2645 ft 163 kts 167°
2026-04-26 07:36 -34.10338 151.32396 2376 ft 162 kts 167°
2026-04-26 07:36 -34.11458 151.32550 2044 ft 164 kts 184°
2026-04-26 07:36 -34.12446 151.31918 2042 ft 165 kts 233°
2026-04-26 07:37 -34.12849 151.30666 2027 ft 159 kts 263°
2026-04-26 07:37 -34.13083 151.29350 2012 ft 161 kts 262°
2026-04-26 07:37 -34.13312 151.28025 2012 ft 161 kts 263°
2026-04-26 07:37 -34.13534 151.26726 2004 ft 159 kts 263°
2026-04-26 07:38 -34.13577 151.25433 1982 ft 150 kts 295°
2026-04-26 07:38 -34.12954 151.24496 2033 ft 147 kts 324°
2026-04-26 07:38 -34.12173 151.23680 2007 ft 148 kts 324°
2026-04-26 07:38 -34.11291 151.23154 2007 ft 137 kts 349°
2026-04-26 07:39 -34.10375 151.22862 2010 ft 137 kts 349°
2026-04-26 07:39 -34.09435 151.22594 2001 ft 141 kts 351°
2026-04-26 07:39 -34.08466 151.22337 2020 ft 141 kts 351°
2026-04-26 07:39 -34.07521 151.22094 2029 ft 135 kts 351°
2026-04-26 07:40 -34.06627 151.21862 1939 ft 126 kts 352°
2026-04-26 07:40 -34.05823 151.21652 1777 ft 113 kts 352°
2026-04-26 07:40 -34.05028 151.21448 1650 ft 119 kts 352°
2026-04-26 07:40 -34.04224 151.21239 1481 ft 113 kts 351°
2026-04-26 07:41 -34.03479 151.21044 1349 ft 113 kts 352°
2026-04-26 07:41 -34.02667 151.20832 1224 ft 120 kts 351°
2026-04-26 07:41 -34.01886 151.20629 1018 ft 111 kts 354°
2026-04-26 07:41 -34.01131 151.20432 905 ft 113 kts 354°
2026-04-26 07:42 -34.00361 151.20235 735 ft 113 kts 351°
2026-04-26 07:42 -33.99559 151.20001 581 ft 120 kts 352°
2026-04-26 07:42 -33.98768 151.19810 431 ft 117 kts 351°
2026-04-26 07:42 -33.97974 151.19596 238 ft 121 kts 352°
2026-04-26 07:43 -33.97123 151.19381 135 ft 125 kts 350°
2026-04-26 07:43 -33.96271 151.19179 25 ft 117 kts 354°
2026-04-26 07:43 -33.95717 151.19028 25 ft 56 kts 349°
2026-04-26 07:43 -33.95470 151.18967 22 ft 29 kts 346°
2026-04-26 07:44 -33.95409 151.18928 22 ft 0 kts 325°
2026-04-26 07:44 -33.95404 151.18924 23 ft 1 kts 326°
2026-04-26 07:44 -33.95394 151.18915 21 ft 2 kts 321°
2026-04-26 07:44 -33.95389 151.18896 21 ft 3 kts 282°
2026-04-26 07:45 -33.95381 151.18846 21 ft 9 kts 294°
2026-04-26 07:45 -33.95337 151.18783 23 ft 10 kts 315°
2026-04-26 07:45 -33.95288 151.18726 25 ft 10 kts 317°
2026-04-26 07:45 -33.95237 151.18673 29 ft 10 kts 320°
2026-04-26 07:46 -33.95181 151.18612 26 ft 12 kts 319°
2026-04-26 07:46 -33.95146 151.18576 29 ft 7 kts 319°
2026-04-26 07:46 -33.95122 151.18524 28 ft 8 kts 289°
2026-04-26 07:46 -33.95115 151.18458 25 ft 10 kts 264°
2026-04-26 07:47 -33.95131 151.18358 25 ft 18 kts 259°
2026-04-26 07:47 -33.95158 151.18216 25 ft 13 kts 256°
2026-04-26 07:47 -33.95175 151.18111 25 ft 11 kts 268°
2026-04-26 07:47 -33.95164 151.18065 25 ft 0 kts 302°
2026-04-26 07:49 -33.95163 151.18064 25 ft 1 kts 302°
2026-04-26 07:49 -33.95134 151.18010 25 ft 12 kts 291°
2026-04-26 07:50 -33.94948 151.17904 22 ft 23 kts 343°
2026-04-26 07:50 -33.94812 151.17871 20 ft 19 kts 349°
2026-04-26 07:50 -33.94690 151.17840 21 ft 14 kts 345°
2026-04-26 07:50 -33.94611 151.17816 25 ft 8 kts 347°
2026-04-26 07:51 -33.94584 151.17809 25 ft 0 kts 347°
2026-04-26 07:51 -33.94540 151.17797 21 ft 13 kts 346°
2026-04-26 07:51 -33.94436 151.17767 22 ft 18 kts 346°
2026-04-26 07:51 -33.94306 151.17731 21 ft 20 kts 347°
2026-04-26 07:52 -33.94166 151.17684 23 ft 21 kts 346°
2026-04-26 07:52 -33.94017 151.17642 20 ft 23 kts 347°
2026-04-26 07:52 -33.93869 151.17666 18 ft 14 kts 62°
2026-04-26 07:52 -33.93842 151.17780 20 ft 14 kts 74°
2026-04-26 07:53 -33.93807 151.17920 29 ft 22 kts 72°
2026-04-26 07:53 -33.93759 151.18123 30 ft 28 kts 75°
2026-04-26 07:53 -33.93709 151.18331 30 ft 26 kts 72°
2026-04-26 07:53 -33.93643 151.18396 30 ft 15 kts
2026-04-26 07:54 -33.93633 151.18397 30 ft 0 kts